User: anonymous   Login
Location: Unspecified
(0.0000°N, 0.0000°E)
Time: 08:47:32
(UTC+01:00)
Language:

Ariane H10 - Orbit

View from above orbital plane
View from above orbital plane
View from above satellite
View from above satellite

Ground track
Ground track

The orbit data is extracted from the following two-line orbital elements,

1 19122U 88040B   18053.50563295 +.00000310 +00000-0 +19040-2 0  9997
2 19122 007.3079 070.7409 7134776 335.4635 002.8765 02.33429092202808
Epoch (UTC): 22 February 2018 12:08:06
Eccentricity: 0.7134776
inclination: 7.3079°
perigee height: 500 km
apogee height: 34753 km
right ascension of ascending node: 70.7409°
argument of perigee: 335.4635°
revolutions per day: 2.33429092
mean anomaly at epoch: 2.8765°
orbit number at epoch: 20280

The dashed part of the orbit path shows where the satellite is in the earth's shadow,  

DLR